FW4199 Weather Reports


Display with metric or nautical units.
time (UTC)temp
F
wind
direction
speed
MPH
gust
MPH
rain 1hr
in
rain 24hr
in
rain mn
in
humidity
%
barometer
mb
20200127083516 33 270 1.0 4.0 0.00 0.00 0.00 88 1000.7
20200127082516 33 0.0 3.0 0.00 0.00 0.00 88 1000.7
20200127081517 33 0.0 2.0 0.00 0.00 0.00 88 1000.7
20200127080516 33 270 1.0 3.0 0.00 0.00 0.00 89 1001.0
20200127075516 33 270 1.0 2.0 0.00 0.00 0.00 89 1001.1
20200127074522 32 270 1.0 3.0 0.00 0.00 0.00 90 1001.1
20200127073517 32 270 1.0 3.0 0.00 0.01 0.00 87 1001.2
20200127072517 32 270 1.0 3.0 0.00 0.01 0.00 89 1001.4
20200127071516 32 270 1.0 3.0 0.00 0.01 0.00 89 1001.4
20200127070516 33 270 1.0 3.0 0.00 0.01 0.00 89 1001.6
20200127065516 33 270 1.0 3.0 0.00 0.01 0.00 88 1001.5
20200127064516 33 270 1.0 3.0 0.00 0.01 0.00 88 1001.5
20200127063516 33 292 1.0 8.0 0.00 0.01 0.00 86 1001.6
20200127062516 34 315 1.0 5.0 0.00 0.01 0.00 86 1001.7
20200127061516 34 315 1.0 5.0 0.00 0.01 0.00 85 1001.7
20200127060516 34 0.0 2.0 0.00 0.01 0.00 86 1001.7
20200127055516 35 292 2.0 9.0 0.00 0.01 0.00 86 1001.8
20200127054516 35 292 2.0 6.0 0.00 0.01 0.00 86 1001.8
20200127053516 35 292 1.0 4.0 0.00 0.01 0.00 86 1001.8
20200127052516 34 292 1.0 5.0 0.00 0.01 0.00 86 1002.1
20200127051516 34 292 1.0 4.0 0.00 0.01 0.00 87 1002.1
20200127050516 34 292 1.0 4.0 0.00 0.01 0.00 86 1002.2
20200127045516 34 270 1.0 5.0 0.00 0.02 0.02 86 1002.2
20200127044516 34 270 1.0 5.0 0.00 0.02 0.02 87 1002.2
20200127043516 34 270 1.0 4.0 0.00 0.03 0.02 87 1002.2
20200127042516 34 270 1.0 6.0 0.00 0.03 0.02 87 1002.3
20200127041516 34 247 2.0 7.0 0.00 0.03 0.02 82 1002.3
20200127040516 34 270 2.0 6.0 0.00 0.04 0.02 86 1002.4
20200127035516 34 270 1.0 3.0 0.00 0.04 0.02 87 1002.5
20200127034516 34 315 2.0 7.0 0.00 0.05 0.02 87 1002.5
20200127033516 34 247 2.0 4.0 0.00 0.08 0.02 87 1002.4
20200127032516 34 292 2.0 7.0 0.00 0.10 0.02 87 1002.3
20200127031516 34 292 2.0 3.0 0.00 0.15 0.02 87 1002.3
20200127030515 33 292 2.0 5.0 0.00 0.18 0.02 87 1002.3
20200127025516 33 270 2.0 5.0 0.00 0.21 0.02 87 1002.4
20200127024516 33 270 2.0 6.0 0.00 0.24 0.02 88 1002.4
20200127023515 32 270 2.0 6.0 0.00 0.29 0.02 87 1002.4
20200127022516 32 247 2.0 6.0 0.00 0.38 0.02 88 1002.6
20200127021515 32 270 2.0 10.0 0.00 0.46 0.02 88 1002.6
20200127020516 32 292 1.0 5.0 0.00 0.54 0.02 87 1002.7
20200127015516 32 292 1.0 4.0 0.00 0.65 0.02 87 1002.7
20200127014515 32 292 2.0 7.0 0.00 0.77 0.02 87 1002.7
20200127013516 33 292 2.0 8.0 0.00 0.85 0.02 86 1002.8
20200127012515 33 315 2.0 9.0 0.00 0.91 0.02 85 1002.7
20200127011515 33 315 2.0 5.0 0.00 0.98 0.02 85 1002.8
20200127010515 33 315 3.0 12.0 0.00 1.03 0.02 85 1002.8
20200127005515 33 270 2.0 4.0 0.00 1.09 0.02 85 1003.1
20200127004515 33 292 2.0 4.0 0.00 1.10 0.02 85 1003.0
20200127003515 33 292 2.0 3.0 0.00 1.14 0.02 85 1003.0
20200127002515 33 292 2.0 4.0 0.00 1.15 0.02 85 1003.0
20200127001516 33 315 2.0 5.0 0.00 1.16 0.02 84 1003.0
20200127000515 34 292 2.0 4.0 0.00 1.18 0.02 83 1003.0
20200126235515 34 292 2.0 5.0 0.00 1.21 0.02 83 1002.9
20200126234515 34 292 2.0 5.0 0.00 1.25 0.02 82 1002.9
20200126233515 34 292 2.0 4.0 0.00 1.26 0.02 80 1002.9
20200126232515 35 292 2.0 3.0 0.00 1.29 0.02 80 1002.8
20200126231515 35 292 2.0 5.0 0.00 1.31 0.02 79 1002.8
20200126230515 35 292 3.0 9.0 0.00 1.33 0.02 79 1002.8
20200126225515 36 315 2.0 6.0 0.00 1.34 0.02 78 1003.0
20200126224516 36 292 3.0 10.0 0.00 1.35 0.02 77 1003.0
20200126223515 36 315 3.0 6.0 0.00 1.35 0.02 77 1002.8
20200126222515 36 337 2.0 6.0 0.00 1.35 0.02 77 1002.8
20200126221515 36 337 2.0 6.0 0.00 1.35 0.02 76 1002.8
20200126220515 36 315 3.0 7.0 0.00 1.35 0.02 76 1002.8
20200126215515 37 315 4.0 11.0 0.00 1.36 0.02 74 1002.6
20200126214515 37 315 3.0 7.0 0.00 1.36 0.02 73 1002.7
20200126213515 38 337 3.0 9.0 0.00 1.36 0.02 73 1002.6
20200126212515 38 337 1.0 5.0 0.00 1.36 0.02 73 1002.3
20200126211515 38 337 4.0 14.0 0.00 1.36 0.02 73 1002.3
20200126210515 39 315 3.0 12.0 0.00 1.36 0.02 74 1002.1
20200126205515 39 315 3.0 9.0 0.00 1.36 0.02 74 1002.0
20200126204515 40 315 5.0 12.0 0.00 1.36 0.02 74 1002.0
20200126203515 40 315 2.0 7.0 0.00 1.37 0.02 75 1001.8
20200126202515 41 337 3.0 6.0 0.00 1.37 0.02 74 1001.7
20200126201515 41 337 4.0 10.0 0.00 1.37 0.02 73 1001.7
20200126200515 41 270 3.0 10.0 0.00 1.37 0.02 75 1001.7
20200126195516 41 315 3.0 9.0 0.00 1.37 0.02 74 1001.6
20200126194515 41 315 2.0 8.0 0.00 1.37 0.02 76 1001.6
20200126193515 41 315 3.0 10.0 0.00 1.37 0.02 75 1001.6
20200126192515 41 315 4.0 10.0 0.00 1.37 0.02 75 1001.6
20200126191517 41 292 3.0 10.0 0.00 1.37 0.02 77 1001.6
20200126190517 41 292 3.0 12.0 0.00 1.38 0.02 76 1001.6
20200126185517 41 337 1.0 8.0 0.00 1.38 0.02 76 1001.7
20200126184517 42 337 3.0 9.0 0.00 1.38 0.02 73 1001.7
20200126183517 42 315 3.0 10.0 0.00 1.38 0.02 73 1001.7
20200126182517 42 315 4.0 11.0 0.00 1.38 0.02 72 1001.7
20200126181517 42 337 4.0 10.0 0.00 1.38 0.02 73 1001.7
20200126180517 42 315 3.0 13.0 0.00 1.38 0.02 75 1001.9
20200126175517 42 337 4.0 11.0 0.00 1.38 0.02 74 1001.8
20200126174517 42 315 3.0 10.0 0.00 1.39 0.02 75 1001.8
20200126173517 41 337 6.0 17.0 0.00 1.39 0.02 75 1002.0
20200126172517 41 315 5.0 14.0 0.00 1.39 0.02 74 1002.2
20200126171517 42 337 4.0 14.0 0.00 1.39 0.02 75 1002.2
20200126170517 42 315 4.0 12.0 0.00 1.39 0.02 76 1002.2
20200126165517 42 315 3.0 12.0 0.00 1.39 0.02 79 1002.4
20200126164517 41 315 2.0 6.0 0.00 1.40 0.02 81 1002.3
20200126163517 40 315 3.0 11.0 0.00 1.40 0.02 84 1002.7
20200126162517 40 315 4.0 12.0 0.00 1.40 0.02 88 1002.8
20200126161517 39 337 4.0 8.0 0.00 1.40 0.02 92 1002.8
20200126160517 39 315 2.0 9.0 0.00 1.40 0.02 97 1003.0
20200126155517 39 337 2.0 6.0 0.00 1.40 0.02 99 1003.2
20200126154516 39 315 3.0 13.0 0.00 1.41 0.02 100 1003.2
20200126153517 39 337 3.0 7.0 0.00 1.41 0.02 100 1003.4
20200126152517 39 315 2.0 6.0 0.00 1.41 0.02 100 1003.4
20200126151517 39 292 2.0 9.0 0.00 1.41 0.02 100 1003.4
20200126150517 38 292 2.0 6.0 0.00 1.41 0.02 100 1003.5
20200126145517 37 315 2.0 9.0 0.00 1.42 0.02 100 1003.5
20200126144517 37 337 1.0 4.0 0.00 1.42 0.02 100 1003.5
20200126143516 36 315 2.0 6.0 0.00 1.42 0.02 100 1003.6
20200126142517 36 315 2.0 8.0 0.00 1.43 0.02 100 1003.6
20200126141517 36 337 3.0 9.0 0.00 1.43 0.02 100 1003.6
20200126140516 35 337 3.0 10.0 0.00 1.43 0.02 100 1003.7
20200126135516 35 337 4.0 11.0 0.00 1.44 0.02 100 1003.8
20200126134517 35 315 3.0 10.0 0.00 1.44 0.02 100 1003.8
20200126133517 35 292 2.0 7.0 0.00 1.44 0.02 100 1004.0
20200126132516 35 337 3.0 11.0 0.00 1.44 0.02 100 1004.1
20200126131516 35 337 3.0 15.0 0.00 1.44 0.02 100 1004.1
20200126130516 35 337 3.0 11.0 0.00 1.44 0.02 100 1004.2
20200126125517 35 337 2.0 6.0 0.00 1.44 0.02 100 1004.2
20200126124516 35 337 2.0 9.0 0.00 1.44 0.02 100 1004.2
20200126123516 35 337 2.0 6.0 0.00 1.44 0.02 100 1003.8
20200126122516 35 337 1.0 6.0 0.00 1.44 0.02 100 1003.7
20200126121516 35 0.0 6.0 0.00 1.44 0.02 100 1003.7
20200126120516 35 0.0 0.0 0.00 1.44 0.02 100 1003.8
20200126115517 35 0.0 4.0 0.00 1.44 0.02 100 1003.7
20200126114517 35 337 1.0 5.0 0.00 1.44 0.02 100 1003.7
20200126113516 35 0.0 3.0 0.00 1.44 0.02 100 1003.7
20200126112516 35 0.0 1.0 0.00 1.44 0.02 100 1003.3
20200126111516 35 337 1.0 7.0 0.00 1.44 0.02 100 1003.3
20200126110516 35 337 1.0 4.0 0.00 1.44 0.02 100 1003.3
20200126105516 35 0.0 0.0 0.00 1.44 0.02 100 1003.4
20200126104516 35 0.0 4.0 0.00 1.44 0.02 100 1003.4
20200126103516 35 0.0 3.0 0.00 1.44 0.02 100 1003.3
20200126102516 35 337 1.0 4.0 0.00 1.44 0.02 100 1003.3
20200126101516 35 337 1.0 3.0 0.00 1.44 0.02 100 1003.3
20200126100516 35 337 1.0 5.0 0.00 1.44 0.02 100 1003.3
20200126095516 35 0.0 2.0 0.00 1.44 0.02 100 1003.3
20200126094516 35 0.0 2.0 0.00 1.44 0.02 100 1003.3
20200126093516 36 0 3.0 14.0 0.00 1.44 0.02 100 1003.2
20200126092516 36 0 1.0 5.0 0.00 1.44 0.02 100 1003.2
20200126091516 36 0 1.0 4.0 0.00 1.44 0.02 100 1003.2
20200126090516 36 0.0 3.0 0.00 1.45 0.02 100 1003.0
20200126085516 36 0 1.0 5.0 0.00 1.45 0.02 100 1003.0
20200126084516 36 0 2.0 5.0 0.00 1.45 0.02 100 1003.0